Dew Point Data


Current

Temp 75.0 F. Dew Point 71.1 F.


Dew Point Comfort Scale

dewpoints

Date, Time Temperature Dew Point
Sat Aug 3 00:08:15 2019 69.0 F. 68.0 F.
Sat Aug 3 01:08:14 2019 69.0 F. 66.9 F.
Sat Aug 3 02:08:15 2019 68.0 F. 66.9 F.
Sat Aug 3 03:08:14 2019 68.0 F. 66.9 F.
Sat Aug 3 04:08:15 2019 67.0 F. 66.0 F.
Sat Aug 3 05:08:14 2019 67.0 F. 66.0 F.
Sat Aug 3 06:08:15 2019 66.0 F. 64.9 F.
Sat Aug 3 07:08:14 2019 68.0 F. 66.9 F.
Sat Aug 3 08:08:14 2019 68.0 F. 66.9 F.
Sat Aug 3 09:08:14 2019 73.0 F. 68.0 F.
Sat Aug 3 10:08:14 2019 78.0 F. 69.1 F.
Sat Aug 3 11:08:38 2019
Sat Aug 3 12:08:15 2019 85.0 F. 73.0 F.
Sat Aug 3 13:08:15 2019 87.0 F. 73.0 F.
Sat Aug 3 14:08:15 2019 87.0 F. 72.0 F.
Sat Aug 3 15:08:14 2019 88.0 F. 71.1 F.
Sat Aug 3 16:08:14 2019 86.0 F. 72.0 F.
Sat Aug 3 17:08:14 2019 86.0 F. 71.1 F.
Sat Aug 3 18:08:14 2019 85.0 F. 70.0 F.
Sat Aug 3 19:08:15 2019 83.0 F. 70.0 F.
Sat Aug 3 20:08:15 2019 80.0 F. 70.0 F.
Sat Aug 3 21:08:15 2019 77.0 F. 70.0 F.
Sat Aug 3 22:08:14 2019 75.0 F. 70.0 F.
Sat Aug 3 23:08:14 2019 74.0 F. 69.1 F.
Sun Aug 4 00:08:14 2019 73.0 F. 69.1 F.
Sun Aug 4 01:08:14 2019 71.0 F. 69.1 F.
Sun Aug 4 02:08:15 2019 70.0 F. 69.1 F.
Sun Aug 4 03:08:15 2019 69.0 F. 68.0 F.
Sun Aug 4 04:08:15 2019 69.0 F. 68.0 F.
Sun Aug 4 05:08:15 2019 69.0 F. 66.9 F.
Sun Aug 4 06:08:15 2019 69.0 F. 66.9 F.
Sun Aug 4 07:08:15 2019 69.0 F. 68.0 F.
Sun Aug 4 08:08:15 2019 72.0 F. 69.1 F.
Sun Aug 4 09:08:14 2019 76.0 F. 68.0 F.
Sun Aug 4 10:08:15 2019 80.0 F. 68.0 F.
Sun Aug 4 11:08:14 2019 83.0 F. 68.0 F.
Sun Aug 4 12:08:15 2019 85.0 F. 66.9 F.
Sun Aug 4 13:09:00 2019
Sun Aug 4 14:09:00 2019
Sun Aug 4 15:08:14 2019 88.0 F. 66.0 F.
Sun Aug 4 16:08:15 2019 88.0 F. 66.0 F.
Sun Aug 4 17:08:15 2019 87.0 F. 66.9 F.
Sun Aug 4 18:08:15 2019 87.0 F. 66.0 F.
Sun Aug 4 19:08:15 2019 85.0 F. 66.9 F.
Sun Aug 4 20:08:14 2019 79.0 F. 69.1 F.
Sun Aug 4 21:08:15 2019 74.0 F. 66.0 F.
Sun Aug 4 22:08:14 2019 71.0 F. 66.9 F.
Sun Aug 4 23:08:14 2019 69.0 F. 66.0 F.
Mon Aug 5 00:08:15 2019 67.0 F. 64.9 F.
Mon Aug 5 01:08:15 2019 67.0 F. 64.9 F.
Mon Aug 5 02:08:15 2019 65.0 F. 64.0 F.
Mon Aug 5 03:08:15 2019 64.0 F. 63.0 F.
Mon Aug 5 04:08:14 2019 64.0 F. 63.0 F.
Mon Aug 5 05:08:15 2019 63.0 F. 62.1 F.
Mon Aug 5 06:08:15 2019 64.0 F. 63.0 F.
Mon Aug 5 07:08:15 2019 65.0 F. 64.0 F.
Mon Aug 5 08:08:14 2019 70.0 F. 66.9 F.
Mon Aug 5 09:08:14 2019 76.0 F. 68.0 F.
Mon Aug 5 10:09:00 2019
Mon Aug 5 11:08:15 2019 84.0 F. 66.9 F.
Mon Aug 5 12:08:07 2019 86.0 F. 64.9 F.
Mon Aug 5 13:08:04 2019 86.0 F. 63.0 F.
Mon Aug 5 14:08:04 2019 87.0 F. 66.0 F.
Mon Aug 5 15:08:05 2019 87.0 F. 66.0 F.
Mon Aug 5 16:08:04 2019 88.0 F. 64.9 F.
Mon Aug 5 17:08:05 2019 87.0 F. 64.9 F.
Mon Aug 5 18:08:05 2019 85.0 F. 66.9 F.
Mon Aug 5 19:08:39 2019
Mon Aug 5 20:08:05 2019 76.0 F. 73.0 F.
Mon Aug 5 21:08:05 2019 74.0 F. 71.1 F.
Mon Aug 5 22:08:05 2019 74.0 F. 70.0 F.
Mon Aug 5 23:08:04 2019 73.0 F. 70.0 F.
Tue Aug 6 00:08:04 2019 73.0 F. 70.0 F.
Tue Aug 6 01:08:05 2019 72.0 F. 70.0 F.
Tue Aug 6 02:08:05 2019 73.0 F. 71.1 F.
Tue Aug 6 03:08:05 2019 73.0 F. 70.0 F.
Tue Aug 6 04:08:04 2019 72.0 F. 70.0 F.
Tue Aug 6 05:08:05 2019 72.0 F. 69.1 F.
Tue Aug 6 06:08:04 2019 73.0 F. 70.0 F.
Tue Aug 6 07:08:04 2019 73.0 F. 70.0 F.
Tue Aug 6 08:08:05 2019 74.0 F. 72.0 F.
Tue Aug 6 09:08:05 2019 76.0 F. 72.0 F.
Tue Aug 6 10:08:04 2019 81.0 F. 72.0 F.
Tue Aug 6 11:08:04 2019 84.0 F. 73.0 F.
Tue Aug 6 12:08:05 2019 88.0 F. 73.9 F.
Tue Aug 6 13:08:05 2019 89.0 F. 73.9 F.
Tue Aug 6 14:08:05 2019 90.0 F. 73.9 F.
Tue Aug 6 15:08:05 2019 91.0 F. 73.9 F.
Tue Aug 6 16:08:05 2019 86.0 F. 72.0 F.
Tue Aug 6 17:08:04 2019 81.0 F. 71.1 F.
Tue Aug 6 18:08:04 2019 81.0 F. 73.0 F.
Tue Aug 6 19:08:05 2019 81.0 F. 73.9 F.
Tue Aug 6 20:08:04 2019 79.0 F. 73.9 F.
Tue Aug 6 21:08:04 2019 76.0 F. 73.9 F.
Tue Aug 6 22:08:05 2019 74.0 F. 73.0 F.
Tue Aug 6 23:08:05 2019 73.0 F. 71.1 F.
Wed Aug 7 00:08:05 2019 72.0 F. 68.0 F.
Wed Aug 7 01:08:04 2019 72.0 F. 68.0 F.
Wed Aug 7 02:08:05 2019 70.0 F. 66.9 F.
Wed Aug 7 03:08:04 2019 69.0 F. 66.9 F.
Wed Aug 7 04:08:05 2019 69.0 F. 66.9 F.
Wed Aug 7 05:08:04 2019 68.0 F. 66.9 F.
Wed Aug 7 06:08:05 2019 67.0 F. 66.0 F.
Wed Aug 7 07:08:04 2019 67.0 F. 66.9 F.
Wed Aug 7 08:08:05 2019 73.0 F. 69.1 F.
Wed Aug 7 09:08:05 2019 77.0 F. 69.1 F.
Wed Aug 7 10:08:04 2019 80.0 F. 69.1 F.
Wed Aug 7 11:08:04 2019 82.0 F. 69.1 F.
Wed Aug 7 12:08:05 2019 84.0 F. 68.0 F.
Wed Aug 7 13:08:05 2019 86.0 F. 68.0 F.
Wed Aug 7 14:08:23 2019 83.0 F. 66.9 F.
Wed Aug 7 15:08:04 2019 83.0 F. 69.1 F.
Wed Aug 7 16:08:04 2019 83.0 F. 69.1 F.
Wed Aug 7 17:08:04 2019 83.0 F. 69.1 F.
Wed Aug 7 18:08:05 2019 81.0 F. 70.0 F.
Wed Aug 7 19:08:05 2019 81.0 F. 69.1 F.
Wed Aug 7 20:08:04 2019 75.0 F. 70.0 F.
Wed Aug 7 21:08:05 2019 74.0 F. 68.0 F.
Wed Aug 7 22:08:05 2019 71.0 F. 68.0 F.
Wed Aug 7 23:08:05 2019 69.0 F. 68.0 F.
Thu Aug 8 00:08:05 2019 68.0 F. 66.9 F.
Thu Aug 8 01:08:05 2019 69.0 F. 68.0 F.
Thu Aug 8 02:08:05 2019 67.0 F. 66.0 F.
Thu Aug 8 03:08:04 2019 66.0 F. 64.9 F.
Thu Aug 8 04:08:04 2019 65.0 F. 64.9 F.
Thu Aug 8 05:08:05 2019 65.0 F. 64.0 F.
Thu Aug 8 06:08:05 2019 66.0 F. 64.9 F.
Thu Aug 8 07:08:04 2019 67.0 F. 66.0 F.
Thu Aug 8 08:08:40 2019
Thu Aug 8 09:08:05 2019 76.0 F. 71.1 F.
Thu Aug 8 10:08:05 2019 79.0 F. 71.1 F.
Thu Aug 8 11:08:04 2019 82.0 F. 71.1 F.
Thu Aug 8 12:08:05 2019 84.0 F. 71.1 F.
Thu Aug 8 13:08:05 2019 85.0 F. 72.0 F.
Thu Aug 8 14:08:04 2019 85.0 F. 72.0 F.
Thu Aug 8 15:08:05 2019 84.0 F. 72.0 F.
Thu Aug 8 16:08:04 2019 84.0 F. 72.0 F.
Thu Aug 8 17:09:00 2019
Thu Aug 8 18:08:05 2019 83.0 F. 72.0 F.
Thu Aug 8 19:08:05 2019 82.0 F. 72.0 F.
Thu Aug 8 20:08:05 2019 78.0 F. 73.0 F.
Thu Aug 8 21:08:40 2019
Thu Aug 8 22:08:40 2019
Thu Aug 8 23:08:40 2019
Fri Aug 9 00:08:05 2019 73.0 F. 72.0 F.
Fri Aug 9 01:08:05 2019 71.0 F. 70.0 F.
Fri Aug 9 02:08:05 2019 70.0 F. 70.0 F.
Fri Aug 9 03:08:05 2019 71.0 F. 70.0 F.
Fri Aug 9 04:08:05 2019 70.0 F. 69.1 F.
Fri Aug 9 05:08:05 2019 70.0 F. 70.0 F.
Fri Aug 9 06:08:04 2019 69.0 F. 68.0 F.
Fri Aug 9 07:08:05 2019 72.0 F. 71.1 F.
Fri Aug 9 08:08:05 2019 75.0 F. 73.0 F.
Fri Aug 9 09:08:04 2019 79.0 F. 73.0 F.
Fri Aug 9 10:08:40 2019
Fri Aug 9 11:08:05 2019 86.0 F. 73.9 F.
Fri Aug 9 12:08:05 2019 87.0 F. 72.0 F.
Fri Aug 9 13:08:05 2019 89.0 F. 72.0 F.
Fri Aug 9 14:08:05 2019 89.0 F. 72.0 F.
Fri Aug 9 15:08:04 2019 88.0 F. 72.0 F.
Fri Aug 9 16:08:05 2019 88.0 F. 75.9 F.
Fri Aug 9 17:08:04 2019 85.0 F. 75.0 F.
Fri Aug 9 18:08:05 2019 84.0 F. 73.9 F.
Fri Aug 9 19:08:05 2019 82.0 F. 75.0 F.
Fri Aug 9 20:08:05 2019 80.0 F. 73.9 F.
Fri Aug 9 21:08:05 2019 77.0 F. 73.0 F.
Fri Aug 9 22:08:05 2019 75.0 F. 73.0 F.
Fri Aug 9 23:08:04 2019 74.0 F. 72.0 F.
Sat Aug 10 00:08:05 2019 74.0 F. 72.0 F.
Sat Aug 10 01:08:06 2019 72.0 F. 70.0 F.
Sat Aug 10 02:08:05 2019 70.0 F. 66.9 F.
Sat Aug 10 03:08:04 2019 69.0 F. 68.0 F.
Sat Aug 10 04:08:05 2019 66.0 F. 64.9 F.
Sat Aug 10 05:08:05 2019 65.0 F. 64.9 F.
Sat Aug 10 06:08:05 2019 65.0 F. 64.0 F.
Sat Aug 10 07:08:05 2019 65.0 F. 64.0 F.
Sat Aug 10 08:08:05 2019 71.0 F. 64.9 F.
Sat Aug 10 09:08:05 2019 75.0 F. 64.0 F.
Sat Aug 10 10:08:05 2019 79.0 F. 64.0 F.
Sat Aug 10 11:08:05 2019 81.0 F. 63.0 F.
Sat Aug 10 12:08:05 2019 84.0 F. 64.0 F.
Sat Aug 10 13:08:04 2019 86.0 F. 64.9 F.
Sat Aug 10 14:08:05 2019 87.0 F. 63.0 F.
Sat Aug 10 15:08:04 2019 88.0 F. 64.9 F.
Sat Aug 10 16:08:05 2019 89.0 F. 63.0 F.
Sat Aug 10 17:08:05 2019 90.0 F. 64.9 F.
Sat Aug 10 18:08:05 2019 88.0 F. 64.0 F.
Sat Aug 10 19:08:05 2019 86.0 F. 69.1 F.
Sat Aug 10 20:08:05 2019 77.0 F. 68.0 F.
Sat Aug 10 21:08:05 2019 73.0 F. 66.9 F.
Sat Aug 10 22:08:05 2019 72.0 F. 66.0 F.
Sat Aug 10 23:08:04 2019 69.0 F. 66.0 F.
Sun Aug 11 00:08:04 2019 68.0 F. 66.0 F.
Sun Aug 11 01:08:05 2019 67.0 F. 66.0 F.
Sun Aug 11 02:08:04 2019 66.0 F. 64.9 F.
Sun Aug 11 03:08:05 2019 66.0 F. 64.0 F.
Sun Aug 11 04:08:05 2019 65.0 F. 64.0 F.
Sun Aug 11 05:08:04 2019 65.0 F. 64.0 F.
Sun Aug 11 06:08:05 2019 64.0 F. 64.0 F.
Sun Aug 11 07:08:05 2019 66.0 F. 64.0 F.
Sun Aug 11 08:08:05 2019 72.0 F. 68.0 F.
Sun Aug 11 09:08:05 2019 77.0 F. 66.9 F.
Sun Aug 11 10:08:05 2019 81.0 F. 69.1 F.
Sun Aug 11 11:08:05 2019 83.0 F. 69.1 F.
Sun Aug 11 12:08:05 2019 85.0 F. 71.1 F.
Sun Aug 11 13:08:05 2019 87.0 F. 73.0 F.
Sun Aug 11 14:08:04 2019 87.0 F. 73.9 F.
Sun Aug 11 15:08:04 2019 86.0 F. 73.0 F.
Sun Aug 11 16:08:05 2019 85.0 F. 73.9 F.
Sun Aug 11 17:08:04 2019 86.0 F. 73.0 F.
Sun Aug 11 18:08:04 2019 87.0 F. 73.9 F.
Sun Aug 11 19:08:05 2019 84.0 F. 73.0 F.
Sun Aug 11 20:08:05 2019 80.0 F. 73.9 F.
Sun Aug 11 21:08:04 2019 78.0 F. 73.9 F.
Sun Aug 11 22:08:04 2019 77.0 F. 75.0 F.
Sun Aug 11 23:08:04 2019 77.0 F. 73.9 F.
Mon Aug 12 00:08:05 2019 78.0 F. 73.9 F.
Mon Aug 12 01:08:05 2019 77.0 F. 73.9 F.
Mon Aug 12 02:08:05 2019 77.0 F. 73.0 F.
Mon Aug 12 03:08:05 2019 76.0 F. 73.9 F.
Mon Aug 12 04:08:05 2019 76.0 F. 72.0 F.
Mon Aug 12 05:08:05 2019 75.0 F. 73.0 F.
Mon Aug 12 06:08:04 2019 76.0 F. 73.0 F.
Mon Aug 12 07:08:05 2019 76.0 F. 72.0 F.
Mon Aug 12 08:08:05 2019 78.0 F. 72.0 F.
Mon Aug 12 09:08:05 2019 80.0 F. 72.0 F.
Mon Aug 12 10:08:05 2019 82.0 F. 73.9 F.
Mon Aug 12 11:08:05 2019 84.0 F. 75.9 F.
Mon Aug 12 12:08:05 2019 83.0 F. 75.0 F.
Mon Aug 12 13:08:05 2019 87.0 F. 77.0 F.
Mon Aug 12 14:08:05 2019 90.0 F. 79.0 F.
Mon Aug 12 15:08:05 2019 90.0 F. 79.0 F.
Mon Aug 12 16:08:05 2019 91.0 F. 78.1 F.
Mon Aug 12 17:08:05 2019 91.0 F. 79.0 F.
Mon Aug 12 18:08:05 2019 91.0 F. 79.0 F.
Mon Aug 12 19:08:05 2019 90.0 F. 79.0 F.
Mon Aug 12 20:08:05 2019 85.0 F. 77.0 F.
Mon Aug 12 21:08:05 2019 84.0 F. 75.9 F.
Mon Aug 12 22:08:04 2019 84.0 F. 75.9 F.
Mon Aug 12 23:08:04 2019 83.0 F. 75.9 F.
Tue Aug 13 00:08:04 2019 84.0 F. 75.9 F.
Tue Aug 13 01:08:05 2019 83.0 F. 75.9 F.
Tue Aug 13 02:08:05 2019 81.0 F. 75.9 F.
Tue Aug 13 03:08:05 2019 83.0 F. 75.9 F.
Tue Aug 13 04:08:05 2019 83.0 F. 75.9 F.
Tue Aug 13 05:08:06 2019 81.0 F. 75.9 F.
Tue Aug 13 06:08:40 2019
Tue Aug 13 07:08:04 2019 71.0 F. 69.1 F.
Tue Aug 13 08:08:04 2019 71.0 F. 70.0 F.
Tue Aug 13 09:08:04 2019 73.0 F. 71.1 F.
Tue Aug 13 10:08:05 2019 78.0 F. 73.0 F.
Tue Aug 13 11:08:05 2019 78.0 F. 73.0 F.
Tue Aug 13 12:08:05 2019 83.0 F. 72.0 F.
Tue Aug 13 13:08:04 2019 85.0 F. 73.0 F.
Tue Aug 13 14:08:05 2019 85.0 F. 73.0 F.
Tue Aug 13 15:08:05 2019 88.0 F. 73.9 F.
Tue Aug 13 16:08:05 2019 89.0 F. 73.9 F.
Tue Aug 13 17:08:04 2019 86.0 F. 73.9 F.
Tue Aug 13 18:08:05 2019 86.0 F. 72.0 F.
Tue Aug 13 19:08:04 2019 86.0 F. 72.0 F.
Tue Aug 13 20:08:05 2019 80.0 F. 72.0 F.
Tue Aug 13 21:08:05 2019 77.0 F. 73.0 F.
Tue Aug 13 22:08:05 2019 76.0 F. 73.0 F.
Tue Aug 13 23:08:04 2019 76.0 F. 73.0 F.
Wed Aug 14 00:08:04 2019 75.0 F. 72.0 F.
Wed Aug 14 01:08:05 2019 72.0 F. 70.0 F.
Wed Aug 14 02:08:05 2019 72.0 F. 70.0 F.
Wed Aug 14 03:08:05 2019 71.0 F. 69.1 F.
Wed Aug 14 04:08:05 2019 70.0 F. 68.0 F.
Wed Aug 14 05:08:05 2019 69.0 F. 68.0 F.
Wed Aug 14 06:08:04 2019 68.0 F. 66.0 F.
Wed Aug 14 07:08:04 2019 69.0 F. 68.0 F.
Wed Aug 14 08:08:05 2019 74.0 F. 71.1 F.
Wed Aug 14 09:08:05 2019 74.0 F. 71.1 F.
Wed Aug 14 10:08:05 2019 82.0 F. 70.0 F.
Wed Aug 14 11:08:40 2019
Wed Aug 14 12:08:14 2019 85.0 F. 68.0 F.
Wed Aug 14 13:09:00 2019
Wed Aug 14 14:08:14 2019 87.0 F. 66.0 F.
Wed Aug 14 15:08:15 2019 89.0 F. 66.9 F.
Wed Aug 14 16:08:15 2019 89.0 F. 66.9 F.
Wed Aug 14 17:08:15 2019 88.0 F. 66.9 F.
Wed Aug 14 18:08:14 2019 87.0 F. 66.0 F.
Wed Aug 14 19:08:15 2019 84.0 F. 64.0 F.
Wed Aug 14 20:08:15 2019 79.0 F. 63.0 F.
Wed Aug 14 21:08:14 2019 74.0 F. 66.9 F.
Wed Aug 14 22:08:15 2019 73.0 F. 66.0 F.
Wed Aug 14 23:08:15 2019 70.0 F. 66.9 F.
Thu Aug 15 00:08:15 2019 69.0 F. 64.9 F.
Thu Aug 15 01:08:14 2019 69.0 F. 64.9 F.
Thu Aug 15 02:08:15 2019 67.0 F. 64.9 F.
Thu Aug 15 03:08:14 2019 67.0 F. 64.9 F.
Thu Aug 15 04:08:16 2019 67.0 F. 64.0 F.
Thu Aug 15 05:08:14 2019 65.0 F. 63.0 F.
Thu Aug 15 06:08:14 2019 64.0 F. 62.1 F.
Thu Aug 15 07:09:00 2019
Thu Aug 15 08:09:00 2019
Thu Aug 15 09:09:00 2019
Thu Aug 15 10:08:59 2019
Thu Aug 15 11:08:15 2019 78.0 F. 64.0 F.
Thu Aug 15 12:08:14 2019 78.0 F. 64.0 F.
Thu Aug 15 13:08:15 2019 81.0 F. 64.0 F.
Thu Aug 15 14:08:14 2019 81.0 F. 64.0 F.
Thu Aug 15 15:08:15 2019 83.0 F. 63.0 F.
Thu Aug 15 16:08:40 2019
Thu Aug 15 17:08:14 2019 84.0 F. 62.1 F.
Thu Aug 15 18:08:15 2019 84.0 F. 62.1 F.
Thu Aug 15 19:08:14 2019 83.0 F. 62.1 F.
Thu Aug 15 20:08:15 2019 81.0 F. 64.9 F.
Thu Aug 15 21:08:14 2019 74.0 F. 70.0 F.
Thu Aug 15 22:08:15 2019 70.0 F. 66.9 F.
Thu Aug 15 23:08:14 2019 69.0 F. 66.0 F.
Fri Aug 16 00:08:14 2019 68.0 F. 66.0 F.
Fri Aug 16 01:08:14 2019 67.0 F. 66.0 F.
Fri Aug 16 02:08:15 2019 66.0 F. 64.9 F.
Fri Aug 16 03:08:14 2019 66.0 F. 64.9 F.
Fri Aug 16 04:08:15 2019 66.0 F. 64.9 F.
Fri Aug 16 05:08:15 2019 66.0 F. 64.0 F.
Fri Aug 16 06:08:14 2019 66.0 F. 64.0 F.
Fri Aug 16 07:08:14 2019 67.0 F. 64.0 F.
Fri Aug 16 08:08:15 2019 70.0 F. 64.9 F.
Fri Aug 16 09:08:14 2019 70.0 F. 64.9 F.
Fri Aug 16 10:08:15 2019 76.0 F. 66.0 F.
Fri Aug 16 11:08:14 2019 80.0 F. 66.9 F.
Fri Aug 16 12:08:15 2019 83.0 F. 66.9 F.
Fri Aug 16 13:08:15 2019 84.0 F. 66.0 F.
Fri Aug 16 14:08:15 2019 84.0 F. 66.0 F.
Fri Aug 16 15:08:14 2019 84.0 F. 66.0 F.
Fri Aug 16 16:08:15 2019 83.0 F. 68.0 F.
Fri Aug 16 17:08:15 2019 83.0 F. 68.0 F.
Fri Aug 16 18:08:15 2019 83.0 F. 68.0 F.
Fri Aug 16 19:08:15 2019 81.0 F. 71.1 F.
Fri Aug 16 20:08:15 2019 78.0 F. 73.0 F.
Fri Aug 16 21:09:00 2019
Fri Aug 16 22:08:59 2019
Fri Aug 16 23:09:00 2019
Sat Aug 17 00:09:00 2019
Sat Aug 17 01:09:00 2019
Sat Aug 17 02:09:00 2019
Sat Aug 17 03:09:00 2019
Sat Aug 17 04:09:00 2019
Sat Aug 17 05:09:00 2019
Sat Aug 17 06:09:00 2019
Sat Aug 17 07:09:00 2019
Sat Aug 17 08:09:00 2019
Sat Aug 17 09:09:00 2019
Sat Aug 17 10:08:59 2019
Sat Aug 17 11:09:00 2019
Sat Aug 17 12:09:00 2019
Sat Aug 17 13:08:15 2019 86.0 F. 71.1 F.
Sat Aug 17 14:08:15 2019 90.0 F. 73.9 F.
Sat Aug 17 15:08:15 2019 90.0 F. 73.9 F.
Sat Aug 17 16:08:14 2019 91.0 F. 73.0 F.
Sat Aug 17 17:08:15 2019 89.0 F. 73.0 F.
Sat Aug 17 18:08:15 2019 89.0 F. 73.0 F.
Sat Aug 17 19:08:15 2019 85.0 F. 72.0 F.
Sat Aug 17 20:08:15 2019 81.0 F. 72.0 F.
Sat Aug 17 21:08:15 2019 80.0 F. 72.0 F.
Sat Aug 17 22:08:15 2019 80.0 F. 72.0 F.
Sat Aug 17 23:08:40 2019
Sun Aug 18 00:08:15 2019 76.0 F. 73.0 F.
Sun Aug 18 01:08:15 2019 76.0 F. 73.0 F.
Sun Aug 18 02:08:15 2019 74.0 F. 71.1 F.
Sun Aug 18 03:08:14 2019 75.0 F. 71.1 F.